map of TAP home
TAP - Airport
Location
City:  Tapachula, Chiapas, México
Name:Tapachula International Airport
ICAO:MMTP
IATA:TAP

Details
Type:Airport (Aerodrome, Airfield)
Use:Public/Civil, International (customs port of entry)
Latitude:14°47'40"N (14.794339)
Longitude:92°22'12"W (-92.370024)
Datum:WGS 1984
Elevation:97 ft (30 m)
Variation:1.86°E (WMM2015 magnetic declination)
-0.13° annual change
Runways:1
Longest:6562 × 148 ft (2000 × 45 m), paved

Time
Time Zone:UTC-6 (DST-5)
Local Time:

Weather
METAR:MMTP 162040Z 23005KT 10SM FEW015 SCT200 31/24 A2981 RMK SLP117 57022 952 8/101 HZY
TAF:MMTP 161132Z 1612/1718 00000KT P6SM SCT200
FM161800 23010KT P6SM SCT020
FM170300 23005KT 6SM HZ SKC
FM171800 23010KT P6SM SKC

Related Locations
Nearby:
Farthest:CCK: 11803 mi / 18996 km
West Island (Pulau Panjang) [Cocos (Keeling) Islands], CC

Find:

   beyond  
but within

Other Information
Maps:
NOTAMs:
Links:
Sources:

  
  • flag of México
  • flag of Chiapas
  

Sectional Chart

Flight Planning
at skyvector.com

Satellite Image

Google Maps Satellite view

 

Copyright © 2004-2018 Karl L. Swartz. All rights reserved.
The Great Circle Mapper name and logo are trademarks of the Great Circle Mapper.
All other trademarks mentioned herein belong to their respective owners.
Please see credits for attibutions and further copyright information.

  Follow gcmap on Facebook Follow gcmap on Twitter Follow gcmap on Google+ GCmap on LinkedIn

hCard Microformat

Geo Microformat